Hourly Data Report for October 02, 2017

All times are specified in Local Standard Time (LST). Add 1 hour to adjust for Daylight Saving Time where and when it is observed.

EUREKA CLIMATE
NUNAVUT

79°59'21.000" N
85°56'02.000" W
10.00 m
2401199
71613
NEK

Download Data

Hourly Data (October 2017)
Hourly Data Report for October 2, 2017
Temp Definition
°C
Dew Point Temp Definition
°C
Rel Hum Definition
%
Wind Dir Definition
10's deg

Wind Spd Definition
km/h
Visibility Definition
km
Stn Press Definition
kPa
Hmdx Definition


Wind Chill Definition


Weather Definition


TIME
00:00 -15.2 -16.3 91 3 4   100.88   -18 LegendNANA
01:00 -15.2 -16.4 91 15 2   100.88   -17 LegendNANA
02:00 -15.1 -16.2 91 21 1   100.89   -16 LegendNANA
03:00 -15.1 -16.2 91 26 1   100.89   -16 LegendNANA
04:00 -16.4 -17.7 90 27 1   100.89   -17 LegendNANA
05:00 -17.8 -19.2 89 2 9   100.90   -24 LegendNANA
06:00 -17.0 -18.3 90 36 8   100.90   -23 LegendNANA
07:00 -16.7 -18.0 90 36 4   100.90   -20 LegendNANA
08:00 -16.3 -17.5 90 32 3   100.89   -19 LegendNANA
09:00 -16.2 -17.3 91 31 4   100.91   -19 LegendNANA
10:00 -16.7 -17.9 90 29 8   100.90   -22 LegendNANA
11:00 -17.5 -18.9 89 31 5   100.90   -21 LegendNANA
12:00 -17.5 -18.8 90 31 3   100.90   -20 LegendNANA
13:00 -16.7 -18.0 90 30 8   100.90   -22 LegendNANA
14:00 -16.0 -17.2 90 29 15   100.92   -24 LegendNANA
15:00 -16.8 -18.1 89 29 16   100.93   -25 LegendNANA
16:00 -18.2 -19.6 88 31 14   100.96   -27 LegendNANA
17:00 -18.7 -20.3 88 30 9   100.99   -25 LegendNANA
18:00 -19.3 -20.8 88 30 13   100.99   -28 LegendNANA
19:00 -18.3 -19.8 89 29 11   101.01   -26 LegendNANA
20:00 -17.0 -18.3 90 29 11   100.99   -24 LegendNANA
21:00 -17.2 -18.6 89 29 11   101.00   -24 LegendNANA
22:00 -16.9 -18.2 90 29 10   101.01   -24 LegendNANA
23:00 -16.3 -17.6 90 30 7   101.00   -21 LegendNANA

Notes on Data Quality.

Legend

  • E = Estimated
  • M = Missing
  • NA = Not Available
  • ‡ = Partner data that is not subject to review by the National Climate Archives
Date modified: